Temp
10 10 9 10 10 10 9 9 8 8 9 9 9 8 8 8 8 7 7 6 5 5 5 5 4 4 4 4 3 3 3 3 3 3 3 3 3 3 3 3 3 4 4 4
10 10 10 10 10 9 8 8 7 8 8 8 8 9 9 9 7 7 6 5 5 5 4 4 3 3 3 3 3 3 3 3 4 4 4 4 4 4 4 4 4 4 4 4
9 9 9 9 8 8 8 7 7 7 7 8 8 8 9 9 8 7 6 6 5 4 3 3 3 2 3 3 3 4 4 4 4 5 5 5 5 5 5 5 4 4 3 3
9 9 8 8 7 7 6 8 7 6 5 8 6 10 8 8 8 8 7 6 5 4 3 2 3 3 3 3 3 3 4 4 4 4 4 4 4 4 4 4 4 4 3 3
8 8 8 7 7 7 6 7 6 6 5 4 4 5 8 9 9 8 7 6 5 4 4 4 4 4 3 3 3 3 3 3 3 2 2 2 2 3 3 3 3 3 2 2
7 7 7 7 7 7 6 6 6 6 4 7 6 5 11 9 8 7 7 7 6 6 5 4 4 3 2 2 2 2 2 2 2 1 1 1 1 1 1 1 1 1 0 -0
7 7 6 6 6 6 6 6 9 9 8 11 4 4 9 8 8 8 7 7 6 5 4 4 3 2 2 2 1 1 1 1 1 0 0 0 0 0 -0 -0 -1 -1 -1 -2
6 6 6 6 6 6 6 6 8 10 11 10 3 6 8 8 8 7 6 6 5 4 4 3 2 2 1 1 1 0 -0 0 -0 -0 -1 -1 -1 -1 -1 -2 -2 -2 -3 -3
6 6 6 6 6 6 6 5 6 5 4 5 8 6 7 8 7 7 6 5 4 3 2 1 1 0 -0 -0 -1 -1 -1 -1 -1 -1 -1 -2 -2 -2 -2 -3 -3 -4 -4 -5
7 6 6 6 6 6 5 5 5 5 8 8 9 6 8 7 6 6 5 4 3 2 1 0 -1 -1 -1 -1 -1 -1 -1 -1 -2 -2 -2 -2 -2 -3 -4 -4 -5 -5 -5 -5
6 6 6 6 6 4 5 4 5 5 4 8 8 9 7 6 6 5 4 3 1 1 -0 -1 -1 -1 -1 -2 -2 -2 -2 -2 -1 -2 -2 -3 -4 -4 -4 -5 -5 -5 -6 -6
6 5 5 5 6 5 5 5 4 4 6 3 2 4 6 6 5 4 3 2 0 -0 -1 -1 -1 -2 -2 -2 -2 -2 -2 -2 -2 -3 -3 -4 -4 -4 -4 -5 -5 -6 -7 -7
5 5 5 5 5 5 5 6 5 4 3 2 5 6 5 5 4 3 2 1 1 0 -1 -1 -2 -2 -2 -2 -3 -2 -2 -3 -3 -4 -4 -5 -5 -4 -5 -5 -6 -7 -8 -8
4 5 5 6 5 5 4 5 4 3 1 4 3 5 5 3 1 2 2 2 1 -0 -1 -2 -2 -3 -3 -3 -3 -3 -3 -4 -4 -5 -5 -5 -5 -5 -6 -6 -7 -8 -8 -9
4 4 5 5 4 4 4 4 3 3 5 1 4 3 4 4 2 1 1 1 0 -1 -2 -3 -3 -3 -3 -3 -3 -3 -4 -5 -6 -6 -6 -6 -6 -6 -6 -7 -8 -9 -9 -10
3 3 3 3 4 3 3 4 4 4 4 2 3 3 4 2 1 1 0 -0 -1 -2 -3 -3 -4 -3 -3 -3 -4 -4 -5 -6 -7 -7 -7 -7 -7 -7 -8 -9 -9 -10 -10 -10
2 2 1 1 3 1 2 5 5 4 4 4 2 2 2 1 0 -0 -1 -1 -2 -3 -4 -4 -4 -3 -4 -4 -5 -5 -6 -7 -7 -7 -7 -8 -8 -8 -9 -9 -9 -10 -11 -11
2 0 -1 -1 1 2 4 3 3 3 3 3 3 2 0 -0 -1 -1 -2 -2 -3 -4 -4 -4 -4 -4 -5 -5 -6 -6 -7 -7 -8 -8 -8 -8 -9 -9 -9 -10 -10 -11 -11 -11
2 -0 -2 -1 -2 1 2 2 2 1 2 2 1 -0 -1 -1 -1 -2 -3 -3 -4 -4 -4 -4 -4 -5 -5 -6 -6 -7 -8 -8 -8 -9 -9 -9 -10 -9 -10 -10 -11 -11 -11 -11
2 1 -1 -3 -3 -0 2 1 1 0 -0 -0 -0 -1 -1 -2 -3 -4 -3 -4 -4 -4 -4 -4 -5 -5 -6 -6 -7 -8 -8 -9 -9 -9 -9 -10 -10 -9 -10 -10 -11 -11 -11 -11
1 -0 -1 -4 -5 -1 1 0 -0 -1 -0 -1 -2 -2 -2 -3 -3 -3 -4 -4 -5 -5 -5 -5 -5 -6 -7 -7 -7 -8 -9 -9 -9 -10 -10 -10 -10 -10 -10 -10 -10 -10 -10 -11
-0 -1 -1 -3 -5 -2 1 -0 -1 -1 -2 -2 -2 -2 -3 -3 -4 -4 -4 -5 -5 -5 -5 -6 -6 -6 -7 -7 -8 -8 -9 -9 -10 -10 -10 -10 -10 -10 -10 -10 -10 -10 -10 -11
-1 0 -0 -0 0 0 -0 -0 -1 -2 -2 -2 -2 -3 -3 -4 -4 -4 -5 -5 -5 -5 -6 -6 -6 -7 -7 -8 -9 -9 -10 -10 -10 -10 -10 -10 -10 -10 -10 -10 -10 -10 -10 -11
-1 -1 -1 -1 -1 -1 -1 -2 -2 -3 -3 -3 -4 -4 -4 -4 -5 -5 -5 -5 -5 -6 -6 -6 -7 -7 -8 -8 -9 -10 -10 -10 -10 -9 -10 -10 -9 -10 -10 -10 -10 -9 -9 -9
-3 -3 -1 -0 -1 -3 -3 -4 -4 -4 -4 -5 -5 -4 -4 -5 -5 -5 -5 -5 -6 -6 -7 -7 -7 -8 -8 -9 -10 -10 -11 -10 -10 -10 -10 -10 -10 -9 -9 -9 -9 -8 -8 -8
-2 -1 -3 -3 -3 -5 -5 -6 -6 -5 -5 -6 -5 -5 -5 -5 -6 -6 -6 -6 -6 -7 -7 -7 -8 -8 -9 -9 -10 -11 -10 -10 -10 -10 -10 -10 -9 -9 -9 -9 -7 -8 -7 -7
Height
3183 3185 3184 3183 3183 3182 3182 3181 3181 3179 3178 3176 3174 3172 3170 3169 3168 3167 3166 3166 3166 3166 3165 3164 3163 3161 3160 3158 3156 3155 3153 3151 3149 3147 3145 3142 3140 3137 3134 3130 3127 3126 3124 3122
3182 3181 3180 3179 3179 3178 3178 3178 3178 3175 3173 3173 3170 3168 3164 3163 3162 3162 3162 3162 3162 3162 3162 3161 3159 3157 3155 3153 3151 3149 3147 3144 3142 3140 3137 3135 3131 3129 3125 3122 3120 3116 3113 3111
3178 3177 3176 3176 3176 3176 3175 3175 3174 3174 3170 3168 3166 3161 3158 3157 3156 3157 3157 3158 3158 3159 3158 3156 3154 3152 3150 3148 3146 3143 3140 3136 3132 3128 3125 3122 3119 3115 3112 3109 3106 3104 3101 3099
3174 3173 3173 3173 3173 3174 3174 3171 3170 3170 3169 3169 3165 3162 3154 3153 3153 3152 3153 3154 3154 3154 3153 3151 3150 3148 3145 3142 3140 3136 3133 3129 3125 3121 3117 3114 3110 3106 3102 3098 3094 3090 3086 3083
3171 3170 3170 3171 3171 3171 3170 3168 3168 3166 3166 3165 3162 3163 3152 3150 3149 3149 3150 3150 3149 3149 3148 3147 3145 3144 3141 3138 3135 3131 3127 3123 3119 3115 3110 3104 3099 3095 3091 3086 3082 3078 3074 3070
3167 3167 3168 3168 3168 3167 3167 3166 3164 3162 3162 3161 3158 3160 3150 3147 3147 3145 3145 3145 3145 3145 3145 3144 3142 3140 3137 3133 3129 3124 3120 3116 3111 3106 3101 3095 3089 3083 3078 3073 3068 3064 3060 3056
3165 3164 3164 3165 3165 3165 3165 3166 3163 3160 3159 3152 3155 3156 3146 3144 3143 3142 3142 3143 3143 3142 3142 3140 3138 3135 3131 3127 3123 3117 3112 3106 3101 3096 3090 3084 3077 3071 3065 3060 3054 3049 3045 3040
3164 3164 3162 3162 3163 3163 3163 3164 3163 3156 3150 3152 3152 3148 3144 3141 3141 3140 3140 3140 3139 3139 3138 3135 3132 3128 3123 3118 3113 3108 3102 3096 3090 3084 3078 3071 3065 3058 3052 3046 3041 3035 3031 3027
3161 3160 3159 3159 3160 3162 3161 3162 3161 3160 3155 3154 3145 3142 3140 3137 3137 3137 3137 3136 3135 3134 3131 3127 3123 3119 3114 3109 3103 3098 3091 3085 3079 3073 3066 3059 3052 3045 3039 3033 3027 3021 3016 3012
3158 3159 3157 3157 3158 3159 3158 3159 3159 3158 3152 3145 3140 3141 3136 3135 3134 3133 3132 3131 3129 3126 3123 3119 3115 3110 3105 3100 3094 3088 3081 3075 3067 3060 3052 3045 3038 3032 3025 3019 3013 3008 3004 2999
3157 3157 3157 3156 3155 3155 3156 3155 3155 3155 3154 3146 3138 3134 3132 3132 3131 3129 3128 3126 3122 3118 3115 3111 3107 3102 3096 3091 3085 3078 3071 3064 3056 3047 3039 3031 3024 3018 3011 3004 2999 2994 2989 2985
3155 3154 3154 3153 3152 3151 3151 3151 3151 3152 3148 3147 3143 3131 3127 3127 3126 3125 3123 3119 3115 3111 3107 3103 3098 3093 3088 3081 3073 3066 3059 3051 3042 3033 3025 3018 3011 3004 2997 2990 2984 2979 2973 2970
3153 3153 3152 3148 3150 3148 3147 3146 3146 3145 3144 3140 3140 3128 3124 3122 3120 3118 3115 3112 3107 3103 3100 3095 3090 3084 3077 3070 3063 3055 3046 3038 3029 3020 3013 3006 2998 2990 2982 2975 2969 2964 2959 2956
3151 3149 3149 3148 3146 3145 3144 3142 3140 3140 3138 3132 3126 3118 3123 3120 3114 3112 3107 3104 3101 3097 3092 3087 3081 3074 3067 3060 3051 3043 3034 3026 3017 3009 3000 2992 2984 2976 2967 2960 2953 2948 2944 2940
3147 3145 3143 3142 3140 3138 3137 3136 3132 3130 3127 3125 3115 3116 3115 3115 3110 3107 3103 3099 3095 3090 3084 3077 3071 3064 3057 3049 3041 3031 3023 3014 3004 2996 2988 2980 2971 2963 2955 2946 2939 2934 2929 2925
3142 3140 3137 3135 3133 3131 3128 3128 3124 3120 3117 3111 3108 3105 3109 3106 3103 3100 3096 3092 3087 3081 3075 3069 3062 3055 3048 3039 3029 3019 3010 3001 2993 2985 2977 2968 2960 2951 2943 2935 2926 2920 2915 2910
3139 3136 3134 3130 3128 3125 3122 3118 3116 3112 3110 3107 3103 3106 3101 3098 3096 3095 3089 3084 3077 3071 3065 3059 3052 3044 3036 3027 3017 3007 2999 2991 2983 2974 2965 2957 2947 2938 2930 2922 2914 2907 2901 2896
3133 3133 3132 3126 3125 3121 3113 3113 3110 3107 3104 3102 3100 3099 3096 3092 3089 3086 3080 3074 3069 3063 3056 3049 3041 3034 3026 3017 3007 2998 2991 2982 2972 2963 2954 2945 2935 2926 2917 2907 2900 2894 2889 2883
3129 3128 3128 3126 3121 3111 3107 3105 3103 3100 3099 3099 3094 3093 3090 3087 3081 3077 3069 3066 3060 3053 3047 3040 3032 3024 3016 3008 2998 2988 2979 2970 2961 2952 2943 2934 2924 2914 2904 2895 2888 2883 2878 2872
3126 3125 3126 3121 3119 3110 3103 3101 3099 3097 3094 3091 3090 3087 3084 3079 3073 3073 3062 3057 3052 3046 3039 3032 3024 3016 3007 2997 2987 2977 2969 2960 2951 2942 2933 2924 2914 2905 2895 2886 2878 2872 2867 2862
3121 3119 3117 3115 3112 3099 3097 3095 3094 3095 3095 3088 3084 3080 3074 3071 3067 3060 3054 3049 3043 3037 3031 3023 3014 3005 2996 2987 2977 2969 2960 2951 2942 2933 2924 2915 2906 2896 2887 2878 2871 2864 2858 2854
3117 3115 3110 3107 3105 3097 3092 3092 3093 3089 3083 3078 3074 3070 3064 3060 3056 3051 3046 3040 3034 3028 3021 3013 3005 2997 2989 2979 2969 2960 2952 2943 2934 2925 2916 2907 2898 2888 2879 2871 2864 2858 2851 2847
3108 3107 3103 3100 3094 3092 3089 3086 3084 3078 3073 3070 3065 3060 3056 3052 3047 3043 3038 3033 3027 3020 3013 3005 2998 2990 2981 2972 2963 2952 2945 2935 2926 2918 2909 2900 2891 2882 2874 2865 2858 2852 2847 2842
3098 3100 3096 3090 3085 3082 3081 3077 3073 3068 3064 3061 3057 3052 3048 3043 3038 3034 3029 3024 3019 3013 3006 2999 2990 2982 2974 2965 2957 2948 2938 2929 2919 2911 2903 2894 2884 2876 2868 2861 2854 2849 2844 2840
3095 3092 3088 3076 3076 3071 3069 3067 3063 3059 3054 3051 3046 3043 3039 3034 3031 3027 3023 3018 3012 3006 2999 2992 2983 2975 2968 2959 2950 2941 2933 2923 2913 2907 2898 2889 2879 2870 2863 2858 2852 2847 2844 2839
3084 3082 3078 3064 3072 3064 3056 3053 3050 3045 3043 3041 3037 3034 3031 3027 3024 3021 3016 3011 3005 2998 2991 2985 2978 2970 2962 2954 2945 2936 2928 2918 2910 2902 2893 2885 2875 2867 2861 2853 2848 2845 2841 2838
Wind_Speed
10 10 9 14 15 16 14 11 10 14 16 16 15 15 20 20 18 18 15 13 11 11 10 11 12 14 15 16 18 20 21 22 23 23 24 26 28 31 34 37 37 37 38 39
11 12 16 17 15 12 9 9 9 15 11 12 17 20 27 24 20 17 14 13 12 11 11 13 14 15 17 19 21 24 26 27 28 29 30 32 33 32 33 35 36 39 42 43
12 15 14 12 11 10 11 10 10 8 14 18 17 17 15 14 17 16 14 14 13 11 12 13 15 17 20 24 27 30 32 35 37 39 39 40 40 41 41 41 40 38 38 38
12 15 14 12 13 10 8 10 9 11 10 7 9 8 16 15 13 13 14 13 12 12 12 13 16 22 27 30 33 35 36 38 40 41 42 43 44 44 45 46 47 48 48 47
11 9 8 9 12 10 10 10 11 15 10 10 8 6 9 10 11 11 12 11 11 11 13 18 23 26 29 32 34 37 39 39 41 43 45 47 48 48 49 50 50 50 51 50
16 14 13 14 12 10 11 11 14 13 5 6 6 6 6 9 6 7 8 9 12 15 17 22 27 29 30 33 37 40 40 43 45 46 47 49 50 52 52 53 54 54 53 53
11 13 13 11 10 9 8 6 4 4 4 3 5 6 11 13 11 8 9 12 16 17 20 26 28 29 31 36 40 41 44 47 48 48 50 52 53 54 55 55 55 56 56 56
6 5 11 9 11 6 6 6 5 5 4 5 8 8 5 8 8 12 8 15 15 18 27 29 30 31 36 41 42 44 48 49 50 51 52 54 54 54 54 54 54 56 55 55
4 5 7 8 8 6 4 4 5 5 8 5 6 8 17 10 9 13 16 19 15 27 29 30 33 36 43 45 46 49 50 51 52 53 53 54 52 51 51 51 50 51 53 54
5 4 7 10 9 10 10 6 3 3 4 5 5 9 13 11 20 21 20 14 26 29 30 31 36 41 47 47 50 51 51 53 54 54 54 53 52 48 47 47 47 47 48 49
5 6 5 7 8 9 8 7 6 6 5 5 7 7 12 23 17 20 18 24 31 32 31 35 39 44 46 49 52 51 52 53 54 55 54 52 49 48 47 47 45 45 46 46
7 5 6 11 12 13 13 14 11 7 5 8 6 20 19 10 19 21 26 31 32 32 34 38 41 45 47 52 51 53 53 55 55 54 52 50 48 49 49 50 50 47 45 44
3 4 4 5 7 10 12 13 15 17 18 17 12 13 19 28 32 30 30 32 31 32 35 39 43 46 52 51 52 53 54 55 54 53 50 48 48 50 50 50 49 48 46 45
10 12 13 13 13 16 17 21 21 17 12 21 25 35 29 27 25 29 30 30 33 37 39 43 46 50 51 50 53 54 55 54 52 50 48 48 49 50 51 49 45 43 44 46
10 14 17 19 22 24 26 27 30 32 36 24 40 30 33 30 25 25 28 32 37 40 45 45 47 51 50 51 53 54 54 52 49 48 48 48 49 51 50 48 46 43 43 44
14 15 19 25 26 25 27 27 31 35 38 41 42 39 28 21 26 25 34 37 40 42 43 44 49 48 50 51 53 54 53 50 48 47 48 50 51 52 48 45 45 45 44 44
18 17 14 13 21 22 23 16 16 24 27 31 29 22 27 26 24 37 39 40 41 41 43 46 46 48 50 51 52 53 52 48 47 48 49 51 52 52 48 47 44 39 40 40
21 19 16 14 19 7 10 14 28 33 30 29 28 25 22 25 41 44 41 39 38 43 43 44 47 49 49 50 50 50 47 46 47 48 51 52 51 48 49 45 41 38 37 39
17 17 9 7 8 25 23 13 18 19 23 23 32 12 29 43 46 39 37 41 41 42 42 45 48 49 49 48 49 49 47 47 48 50 51 50 46 47 48 44 40 38 35 40
13 14 13 15 6 6 15 24 23 22 24 7 16 35 44 41 40 27 41 41 41 40 42 46 46 47 47 48 48 47 46 48 49 51 50 46 42 46 46 39 36 35 36 33
15 13 19 17 11 18 23 18 15 10 21 26 35 39 39 38 37 40 40 39 38 40 43 44 45 47 47 47 47 47 47 48 49 48 44 44 43 44 42 37 36 35 31 28
15 11 16 10 9 12 12 20 21 27 35 36 35 37 38 39 39 37 37 36 37 41 42 43 45 46 45 45 46 46 47 47 46 42 43 42 42 42 37 35 34 32 28 24
19 21 22 22 19 27 37 33 37 34 31 27 35 39 39 39 38 35 34 34 38 40 42 43 44 44 44 44 44 46 46 46 43 38 42 41 40 38 34 34 31 28 25 22
28 24 31 38 34 33 44 37 30 29 30 31 35 37 38 37 35 33 31 34 38 39 40 41 42 43 43 43 42 42 43 43 39 36 43 40 40 38 32 30 28 25 24 19
27 29 39 45 44 33 33 27 40 37 37 34 36 36 35 36 33 30 30 34 36 39 39 39 41 42 42 42 41 42 42 40 36 37 40 37 37 33 30 30 26 21 17 17
33 34 31 43 31 37 45 41 36 32 28 30 36 33 34 31 28 26 30 33 36 37 37 38 38 39 39 40 41 41 37 36 35 39 35 35 35 29 29 29 19 14 17 15
Wind_Direction
252 260 251 267 272 272 272 265 262 274 282 285 280 282 287 285 277 275 272 267 273 281 290 295 298 302 307 311 311 311 309 307 302 297 294 291 288 286 285 286 285 284 284 284
261 260 269 273 272 267 261 270 274 286 283 291 291 292 287 282 275 269 264 263 272 276 283 287 293 301 307 309 312 314 313 310 307 303 301 299 298 295 291 286 282 281 280 280
260 267 270 266 261 261 273 269 271 258 293 296 299 294 282 279 266 265 262 262 266 270 275 285 297 307 313 315 316 314 313 313 313 312 312 310 308 307 305 302 300 296 291 284
264 262 256 256 259 262 271 272 262 280 301 284 293 300 295 277 269 263 259 262 264 270 282 296 310 315 316 316 315 314 313 313 312 312 311 310 308 306 304 303 302 300 298 296
247 248 246 247 249 258 254 272 278 283 278 282 260 233 260 268 275 266 258 260 273 288 306 313 314 312 311 310 309 309 310 311 311 310 310 310 307 306 304 302 300 298 296 294
249 252 250 248 254 254 271 286 291 287 244 245 200 208 260 270 282 293 283 294 303 302 305 307 306 306 306 307 308 309 309 310 311 311 309 308 307 306 304 302 300 298 295 293
250 248 246 241 249 261 262 287 261 221 213 352 184 231 249 269 289 302 307 303 293 293 297 300 300 301 303 308 309 308 310 311 311 310 310 309 307 305 303 301 299 297 295 293
224 243 230 239 226 235 244 227 291 290 288 336 274 241 259 281 297 297 286 306 283 290 297 295 296 301 309 311 312 311 311 311 312 311 310 308 306 303 302 299 295 292 289 287
221 247 237 230 226 230 240 227 242 268 280 270 233 271 290 295 323 308 292 300 283 306 298 298 302 303 311 313 313 312 313 313 312 311 309 307 306 304 300 296 292 289 287 286
243 255 248 242 246 238 237 248 295 252 271 267 237 275 266 309 316 314 310 284 305 306 302 301 301 303 309 311 312 313 313 313 312 311 310 309 307 304 300 296 293 290 289 286
235 240 260 237 232 237 239 244 242 235 241 286 298 283 282 303 314 317 308 304 310 306 302 301 301 303 307 309 312 312 313 313 313 313 312 309 307 306 303 299 296 292 289 287
253 261 245 246 262 253 252 250 248 241 240 238 272 278 284 291 308 313 312 309 307 303 297 300 302 306 307 311 313 315 315 315 315 314 312 309 308 307 304 299 294 289 285 283
247 248 278 276 265 261 255 261 264 257 260 246 266 275 301 306 308 312 311 307 307 307 302 302 306 307 311 314 314 315 316 316 315 313 311 310 311 310 307 303 296 292 290 285
274 260 244 263 278 280 273 276 275 259 247 269 248 281 286 299 303 314 312 311 308 308 305 305 307 310 313 314 315 316 317 317 315 314 313 316 315 313 309 305 298 290 288 285
275 272 278 280 278 278 279 280 278 270 275 257 281 276 286 300 305 309 308 309 306 306 307 306 308 313 314 315 316 316 316 317 316 317 318 318 318 316 310 304 299 293 290 285
285 277 287 290 289 285 285 285 281 277 276 270 278 286 304 302 306 311 316 313 309 306 306 307 311 312 315 317 317 317 318 319 319 318 317 318 317 314 311 307 300 292 293 288
280 280 288 283 293 303 297 300 284 289 290 287 274 302 308 306 307 321 315 313 310 308 309 311 313 316 318 318 318 319 319 319 317 317 319 318 316 314 308 307 304 296 300 295
275 278 283 277 300 267 294 300 290 289 289 290 291 304 302 306 315 317 311 312 310 311 313 314 316 318 319 320 319 317 317 318 320 321 319 318 317 315 315 309 306 301 302 301
277 269 273 269 263 290 311 299 305 292 293 294 299 296 313 315 310 316 309 315 314 315 315 317 318 318 320 319 318 318 321 323 322 321 320 319 319 320 319 314 307 303 297 300
283 281 267 272 262 270 289 299 300 303 309 266 299 307 308 307 305 308 309 313 314 314 317 317 318 320 321 322 322 322 325 324 324 322 322 322 321 323 322 318 314 305 298 292
282 278 263 252 258 279 299 301 305 300 307 299 301 305 307 307 307 310 311 312 313 317 318 319 321 323 324 324 324 326 325 325 323 323 324 327 323 322 321 317 320 320 309 298
274 272 271 248 230 282 309 317 309 307 305 301 302 308 309 309 311 309 311 313 316 318 320 322 324 324 326 327 327 326 325 325 326 327 329 327 325 325 324 323 318 320 317 308
260 273 267 264 276 285 294 302 305 305 302 300 306 307 308 308 307 307 311 313 318 320 323 324 324 325 329 331 329 326 327 327 329 331 334 330 330 327 327 326 322 323 326 327
282 283 282 291 293 290 298 302 305 298 301 301 304 301 305 306 306 310 311 314 319 322 323 323 325 330 332 332 330 331 330 330 329 330 334 334 330 330 330 331 325 328 332 328
277 283 291 291 297 306 302 300 299 298 295 298 300 300 303 304 304 307 309 315 320 321 323 326 329 332 334 332 333 334 334 332 334 334 336 334 333 338 337 333 328 319 324 322
297 307 294 292 296 292 296 299 300 298 295 294 293 295 300 299 302 303 311 317 320 322 326 328 331 334 334 333 337 336 335 338 338 338 340 340 342 347 342 336 326 313 319 330